Home > Weather > Downey > Past weeks

Flag for USA Weather for the Past 2 Weeks in Downey, California, USA

Now
58 °F

Passing clouds.


Feels Like: 58 °F
Forecast: 55 / 70 °F
Wind: 5 mph from West

Location: Long Beach Airport

Current Time: Apr 29, 2016 at 10:58:13 PM

Latest Report: Apr 29, 2016 at 9:53 PM


Visibility: 10 mi

Pressure: 29.92 "Hg

Humidity: 75%

Dew Point: 50 °F

Location of DowneyLocation

Historic Weather in Downey — Graph

°F

Downey Temperature Yesterday

Maximum temperature yesterday: 69 °F (at 3:53 PM)
Minimum temperature yesterday: 54 °F (at 5:53 AM)
Average temperature yesterday: 61 °F

High & Low Weather Summary for the Past Weeks

 TemperatureHumidityPressure
High89 °F (Apr 19, 3:53 PM)90% (Apr 15, 12:53 AM)30.06 "Hg (Apr 15, 12:53 AM)
Low51 °F (Apr 26, 4:53 AM)9% (Apr 16, 12:53 PM)29.72 "Hg (Apr 27, 11:53 PM)
Average66 °F54%29.92 "Hg
* Reported Apr 14 8:53 PM — Apr 29 8:53 PM, Downey, Weather by CustomWeather, © 2016

Note: Actual official high and low records may vary slightly from our data, if they occured in-between our weather recording intervals... More about our weather records

Advertising

Downey Weather History for the Previous 24 Hours

Scroll right to see more
 ConditionsComfort  
Time TempWeatherWind HumidityBarometerVisibility
8:53 PM
Fri, Apr 29
59 °FClear.8 mph75%29.92 "Hg10 mi
7:53 PM60 °FSunny.9 mph75%29.91 "Hg10 mi
6:53 PM64 °FSunny.7 mph65%29.91 "Hg10 mi
5:53 PM64 °FScattered clouds.14 mph65%29.92 "Hg10 mi
4:53 PM67 °FScattered clouds.10 mph55%29.93 "Hg10 mi
3:53 PM68 °FSunny.13 mph53%29.95 "Hg10 mi
2:53 PM67 °FSunny.10 mph55%29.98 "Hg10 mi
1:53 PM67 °FScattered clouds.12 mph55%30.00 "Hg10 mi
12:53 PM66 °FPartly sunny.10 mph54%30.01 "Hg10 mi
11:53 AM65 °FPartly sunny.9 mph59%30.03 "Hg10 mi
11:00 AM63 °FOvercast.9 mph63%30.04 "Hg10 mi
9:53 AM63 °FPartly sunny.5 mph60%30.03 "Hg10 mi
8:53 AM61 °FOvercast.3 mph65%30.03 "Hg10 mi
8:00 AM59 °FOvercast.7 mph67%30.02 "Hg10 mi
7:00 AM57 °FPassing clouds.No wind74%30.00 "Hg10 mi
5:53 AM56 °FPassing clouds.No wind77%29.99 "Hg10 mi
4:53 AM56 °FOvercast.No wind77%29.98 "Hg10 mi
3:53 AM55 °FPassing clouds.5 mph83%29.97 "Hg10 mi
2:53 AM56 °FClear.6 mph81%29.97 "Hg10 mi
1:53 AM57 °FPassing clouds.6 mph81%29.98 "Hg10 mi
12:53 AM58 °FOvercast.6 mph84%29.97 "Hg10 mi
11:53 PM
Thu, Apr 28
58 °FOvercast.3 mph81%29.96 "Hg10 mi
10:53 PM58 °FPassing clouds.No wind81%29.96 "Hg10 mi
Weather by CustomWeather, © 2016

See weather overviewHow to use our weather pages